MEASAT-3 1 29648U 06056A 21065.79134271 -.00000258 00000-0 00000+0 0 9999 2 29648 0.0280 145.5225 0001385 266.3701 129.1896 1.00273310 52210 BREEZE-M DEB [TANK] 1 29649U 06056B 21065.03938490 .00000581 00000-0 17583-3 0 9998 2 29649 49.5751 315.0146 5347005 293.1143 20.3566 5.02713740255878 BREEZE-M R/B 1 29650U 06056C 21064.19540799 -.00000139 00000-0 00000-0 0 9990 2 29650 16.4099 284.4012 5012742 246.2076 349.8419 1.86161712 96637